BEIDOU-3 IGSO-2 (44337 NORAD) Tracking and Keplerian Element Data

This shows tracking and keplerian element data for the satellite.

Feedback or suggestion? Click here.




ElementValue
Catalog44337
NameBEIDOU-3 IGSO-2
Epoch Orbit39
Epoch Day201.62244691
Epoch Year2019
RAAN181.365
Inclination55.05
Eccentricity0.0012015
Argument of Perigee186.6302
Mean Anonmoly260.6746
Mean Motion1.00289643
Decay Rate-8.9E-07
L11 44337U 19035A 19201.62244691 -.00000089 00000-0 00000-0 0 9994
L22 44337 55.0500 181.3650 0012015 186.6302 260.6746 1.00289643 393

Live tracking and technical data element details for BEIDOU-3 IGSO-2 (NORAD 44337). BEIDOU-3 IGSO-2 can be tracked NOW for your location showing map with azimuth and elevation plus other details from your city location.

Track the satellite on the map from your city or location and see movement details for azimuth, elevation, latitude, longitude, range, height, and movement on the map or in text.







IsCatalogInMostPopularTable: catalog: 44337, numindb: 2
Update: records affected: 1



GetName: 44337 BEIDOU-3 IGSO-2

Hit Count: updated at: Sun, 21 Jul 2019 21:22:12 GMT